Grand Isle, LA NWLON current weather conditions

sailwx.info

Wind from 295 at 13 knots gusting 21

Water temperature 25.6° C

Last reported at 2020-Sep-22 13:48 UTC.
Time now 2020-Sep-22 14:26 UTC

Location: N 29°16' W 089°57'.
View on Google Maps.

See reports from other nearby stations

  
Tides and Currents Weather Stations Pressure Air Temp Water Temp Dewpoint Dewpoint Depression Visibility Wind Speed Wind Dir Waves Ship Positions
date/time (UTC)wind fromknots sea level pressurealtimeterstation pressurevisibilityair tempwater tempwave heightnotes
2020-Sep-22 14:00 300 11 gusting 18 25.6
2020-Sep-22 13:48 295 13 gusting 21 25.6
2020-Sep-22 13:42 294 13 gusting 21 25.6
2020-Sep-22 13:36 295 12 gusting 19 25.6
2020-Sep-22 13:30 290 12 gusting 18 25.6
2020-Sep-22 13:24 298 10 gusting 16 25.6
2020-Sep-22 13:18 296 9 gusting 17 25.6
2020-Sep-22 13:12 295 11 gusting 15 25.6
2020-Sep-22 13:06 297 9 gusting 14 25.6
2020-Sep-22 13:00 294 10 gusting 15 25.6
2020-Sep-22 12:54 293 12 gusting 18 25.6
2020-Sep-22 12:48 298 11 gusting 16 25.6
2020-Sep-22 12:42 295 10 gusting 19 25.6
2020-Sep-22 12:36 292 13 gusting 19 25.6
2020-Sep-22 12:30 293 12 gusting 19 25.6
2020-Sep-22 12:24 293 10 gusting 19 25.6
2020-Sep-22 12:18 288 12 gusting 18 25.6
2020-Sep-22 12:12 293 11 gusting 16 25.6
2020-Sep-22 12:06 291 12 gusting 19 25.6
2020-Sep-22 12:00 290 11 gusting 15 25.6
2020-Sep-22 11:54 292 12 gusting 19 25.6
2020-Sep-22 11:48 286 13 gusting 19 25.6
2020-Sep-22 11:42 292 11 gusting 18 25.6
2020-Sep-22 11:36 294 9 gusting 15 25.6
2020-Sep-22 11:30 298 12 gusting 19 25.6
2020-Sep-22 11:24 296 11 gusting 18 25.6
2020-Sep-22 11:18 288 13 gusting 23 25.6
2020-Sep-22 11:12 286 13 gusting 19 25.6
2020-Sep-22 11:06 291 11 gusting 19 25.6
2020-Sep-22 11:00 289 14 gusting 20 25.6
2020-Sep-22 10:54 298 13 gusting 19 25.6
2020-Sep-22 10:48 289 13 gusting 18 25.6
2020-Sep-22 10:42 295 11 gusting 17 25.6
2020-Sep-22 10:36 293 11 gusting 18 25.6
2020-Sep-22 10:30 294 10 gusting 17 25.6
2020-Sep-22 10:24 290 13 gusting 18 25.6
2020-Sep-22 10:18 293 11 gusting 18 25.6
2020-Sep-22 10:12 293 11 gusting 18 25.6
2020-Sep-22 10:06 295 11 gusting 16 25.6
2020-Sep-22 10:00 295 11 gusting 19 25.6
2020-Sep-22 09:54 294 10 gusting 16 25.6
2020-Sep-22 09:48 297 12 gusting 19 25.6
2020-Sep-22 09:42 297 12 gusting 16 25.6
2020-Sep-22 09:36 300 10 gusting 17 25.6
2020-Sep-22 09:30 294 11 gusting 15 25.6
2020-Sep-22 09:24 296 11 gusting 15 25.6
2020-Sep-22 09:18 296 13 gusting 18 25.6
2020-Sep-22 09:12 293 11 gusting 17 25.6
2020-Sep-22 09:06 292 10 gusting 16 25.6
2020-Sep-22 09:00 295 12 gusting 17 25.6
2020-Sep-22 08:54 291 13 gusting 20 25.6
2020-Sep-22 08:48 292 11 gusting 18 25.6
2020-Sep-22 08:42 288 12 gusting 18 25.6
2020-Sep-22 08:36 291 10 gusting 18 25.6
2020-Sep-22 08:30 289 13 gusting 19 25.6
2020-Sep-22 08:24 290 13 gusting 19 25.6
2020-Sep-22 08:18 286 13 gusting 19 25.6
2020-Sep-22 08:12 289 13 gusting 19 25.6
2020-Sep-22 08:06 288 13 gusting 18 25.6
2020-Sep-22 08:00 297 12 gusting 19 25.6
2020-Sep-22 07:54 288 15 gusting 19 25.6
2020-Sep-22 07:48 288 12 gusting 18 25.6
2020-Sep-22 07:42 285 14 gusting 19 25.6
2020-Sep-22 07:36 287 13 gusting 19 25.6
2020-Sep-22 07:30 290 13 gusting 19 25.6
2020-Sep-22 07:24 289 13 gusting 19 25.6
2020-Sep-22 07:18 290 13 gusting 18 25.6
2020-Sep-22 07:12 290 13 gusting 19 25.6
2020-Sep-22 07:06 293 13 gusting 19 25.6
2020-Sep-22 07:00 290 14 gusting 19 25.6
2020-Sep-22 06:54 297 12 gusting 19 25.6
2020-Sep-22 06:48 293 11 gusting 18 25.6
2020-Sep-22 06:42 299 11 gusting 18 25.6
2020-Sep-22 06:36 301 11 gusting 18 25.6
2020-Sep-22 06:30 295 11 gusting 21 25.6
2020-Sep-22 06:24 290 14 gusting 19 25.6
2020-Sep-22 06:18 291 15 gusting 20 25.6
2020-Sep-22 06:12 290 16 gusting 20 25.6
2020-Sep-22 06:06 291 15 gusting 21 25.6
2020-Sep-22 06:00 291 13 gusting 21 25.6
2020-Sep-22 05:54 290 16 gusting 21 25.6
2020-Sep-22 05:48 288 17 gusting 21 25.6
2020-Sep-22 05:42 289 14 gusting 22 25.6
2020-Sep-22 05:36 289 16 gusting 20 25.6
2020-Sep-22 05:30 293 16 gusting 24 25.6
2020-Sep-22 05:24 292 15 gusting 20 25.6
2020-Sep-22 05:18 293 13 gusting 21 25.6
2020-Sep-22 05:12 296 16 gusting 22 25.6
2020-Sep-22 05:06 296 14 gusting 21 25.6
2020-Sep-22 05:00 293 15 gusting 20 25.6
2020-Sep-22 04:54 295 13 gusting 22 25.6
2020-Sep-22 04:48 293 14 gusting 23 25.6
2020-Sep-22 04:42 295 13 gusting 20 25.6
2020-Sep-22 04:36 295 12 gusting 22 25.6
2020-Sep-22 04:30 294 13 gusting 21 25.6
2020-Sep-22 04:24 300 12 gusting 19 25.6
2020-Sep-22 04:18 304 12 gusting 18 25.6
2020-Sep-22 04:12 301 10 gusting 16 25.6
2020-Sep-22 04:06 295 10 gusting 16 25.6
2020-Sep-22 04:00 301 12 gusting 24 25.6
2020-Sep-22 03:54 292 14 gusting 22 25.6
2020-Sep-22 03:48 294 14 gusting 19 25.6
2020-Sep-22 03:42 297 13 gusting 23 25.6
2020-Sep-22 03:36 292 16 gusting 23 25.6
2020-Sep-22 03:30 293 13 gusting 22 25.6
2020-Sep-22 03:24 299 11 gusting 18 25.6
2020-Sep-22 03:18 295 13 gusting 19 25.6
2020-Sep-22 03:12 293 13 gusting 21 25.6
2020-Sep-22 03:06 300 13 gusting 20 25.6
2020-Sep-22 03:00 297 14 gusting 26 25.6
2020-Sep-22 02:54 298 12 gusting 24 25.6
2020-Sep-22 02:48 293 15 gusting 23 25.6
2020-Sep-22 02:42 302 14 gusting 20 25.6
2020-Sep-22 02:36 300 13 gusting 22 25.6
2020-Sep-22 02:30 308 13 gusting 21 25.6
2020-Sep-22 02:24 297 13 gusting 19 25.6
2020-Sep-22 02:18 299 12 gusting 18 25.6
2020-Sep-22 02:12 302 13 gusting 19 25.6
2020-Sep-22 02:06 300 13 gusting 22 25.6
2020-Sep-22 02:00 298 14 gusting 21 25.6
2020-Sep-22 01:54 302 14 gusting 24 25.6
2020-Sep-22 01:48 305 17 gusting 23 25.6
2020-Sep-22 01:42 302 13 gusting 20 25.0
2020-Sep-22 01:36 298 16 gusting 24 25.0
2020-Sep-22 01:30 307 16 gusting 23 25.6
2020-Sep-22 01:24 302 15 gusting 26 25.0
2020-Sep-22 01:18 308 19 gusting 26 25.6
2020-Sep-22 01:12 310 15 gusting 22 25.6
2020-Sep-22 01:06 306 18 gusting 27 25.6
2020-Sep-22 01:00 306 17 gusting 26 25.6
2020-Sep-22 00:54 309 18 gusting 28 25.6
2020-Sep-22 00:48 302 18 gusting 26 25.6
2020-Sep-22 00:42 299 17 gusting 25 25.6
2020-Sep-22 00:36 305 19 gusting 25 25.6
2020-Sep-22 00:30 297 15 gusting 26 25.6
2020-Sep-22 00:24 295 18 gusting 26 25.6
2020-Sep-22 00:18 299 17 gusting 26 25.6
2020-Sep-22 00:12 301 16 gusting 23 25.6
2020-Sep-22 00:06 299 18 gusting 26 25.6
2020-Sep-21 23:48 301 14 gusting 23 25.6
2020-Sep-21 23:42 297 14 gusting 23 25.6
2020-Sep-21 23:36 300 13 gusting 22 25.6
2020-Sep-21 23:30 304 15 gusting 24 25.6
2020-Sep-21 23:24 306 13 gusting 22 25.6
2020-Sep-21 23:18 304 14 gusting 22 25.6
2020-Sep-21 23:12 305 14 gusting 20 25.6
2020-Sep-21 23:06 305 15 gusting 22 25.6
2020-Sep-21 23:00 306 15 gusting 23 25.6
2020-Sep-21 22:54 308 13 gusting 19 25.6
2020-Sep-21 22:48 301 13 gusting 19 25.6
2020-Sep-21 22:42 298 13 gusting 20 25.6
2020-Sep-21 22:36 298 12 gusting 22 25.6
2020-Sep-21 22:30 297 16 gusting 24 25.6
2020-Sep-21 22:24 298 14 gusting 22 25.6
2020-Sep-21 22:18 296 16 gusting 23 25.6
2020-Sep-21 22:12 293 17 gusting 26 25.6
2020-Sep-21 22:06 292 15 gusting 22 25.6
2020-Sep-21 22:00 294 14 gusting 22 25.6
2020-Sep-21 21:54 295 13 gusting 21 26.1
2020-Sep-21 21:48 295 18 gusting 23 25.6
2020-Sep-21 21:42 296 17 gusting 23 25.6
2020-Sep-21 21:36 293 16 gusting 20 26.1
2020-Sep-21 21:30 292 16 gusting 19 26.1
2020-Sep-21 21:24 295 13 gusting 20 25.6
2020-Sep-21 21:18 298 12 gusting 23 25.6
2020-Sep-21 21:12 294 13 gusting 21 25.6
2020-Sep-21 21:06 297 11 gusting 20 26.1
2020-Sep-21 21:00 293 13 gusting 21 25.6
2020-Sep-21 20:54 299 13 gusting 20 25.6
2020-Sep-21 20:48 298 13 gusting 20 26.1
2020-Sep-21 20:42 295 13 gusting 24 26.1
2020-Sep-21 20:36 296 13 gusting 24 26.1
2020-Sep-21 20:30 292 14 gusting 24 26.1
2020-Sep-21 20:24 295 13 gusting 23 26.1
2020-Sep-21 20:18 294 15 gusting 23 26.1
2020-Sep-21 20:12 295 14 gusting 22 26.1
2020-Sep-21 20:06 294 14 gusting 21 26.1
2020-Sep-21 20:00 292 15 gusting 26 26.1
2020-Sep-21 19:54 297 12 gusting 22 26.1
2020-Sep-21 19:48 296 15 gusting 25 26.1
2020-Sep-21 19:42 295 16 gusting 24 26.1
2020-Sep-21 19:36 294 17 gusting 24 26.1
2020-Sep-21 19:30 293 15 gusting 20 26.1
2020-Sep-21 19:24 292 16 gusting 21 26.1
2020-Sep-21 19:18 291 15 gusting 22 26.1
2020-Sep-21 19:12 294 13 gusting 24 26.1
2020-Sep-21 19:06 297 13 gusting 25 26.1
2020-Sep-21 19:00 293 15 gusting 19 26.1
2020-Sep-21 18:54 297 13 gusting 24 26.1
2020-Sep-21 18:48 292 14 gusting 22 26.1
2020-Sep-21 18:42 292 16 gusting 21 26.1
2020-Sep-21 18:36 295 13 gusting 24 26.1
2020-Sep-21 18:30 293 14 gusting 23 26.1
2020-Sep-21 18:24 292 16 gusting 26 26.1
2020-Sep-21 18:18 293 19 gusting 24 26.1
2020-Sep-21 18:12 295 17 gusting 22 26.1
2020-Sep-21 18:06 294 18 gusting 24 26.1
2020-Sep-21 18:00 292 17 gusting 25 26.1
2020-Sep-21 17:54 291 18 gusting 22 26.1
2020-Sep-21 17:48 290 13 gusting 20 26.1
2020-Sep-21 17:42 292 11 gusting 19 26.1
2020-Sep-21 17:36 293 13 gusting 19 26.1
2020-Sep-21 17:30 291 14 gusting 20 26.1
2020-Sep-21 17:24 294 15 gusting 22 26.1
2020-Sep-21 17:18 295 14 gusting 20 26.1
2020-Sep-21 17:12 293 13 gusting 19 26.1
2020-Sep-21 17:06 297 14 gusting 22 26.1
2020-Sep-21 17:00 298 9 gusting 20 26.1
2020-Sep-21 16:54 297 13 gusting 20 26.1
2020-Sep-21 16:48 301 12 gusting 19 26.1
2020-Sep-21 16:42 298 15 gusting 22 26.1
2020-Sep-21 16:36 302 12 gusting 18 26.1
2020-Sep-21 16:30 301 12 gusting 18 26.1
2020-Sep-21 16:24 299 11 gusting 19 26.1
2020-Sep-21 16:18 301 12 gusting 18 26.1
2020-Sep-21 16:12 305 10 gusting 22 26.1
2020-Sep-21 16:06 311 15 gusting 20 26.1
2020-Sep-21 16:00 302 12 gusting 19 26.1
2020-Sep-21 15:54 298 12 gusting 19 26.1
2020-Sep-21 15:48 296 13 gusting 20 26.1
2020-Sep-21 15:42 294 17 gusting 22 26.1
2020-Sep-21 15:36 296 12 gusting 18 26.1
2020-Sep-21 15:30 294 14 gusting 19 26.1
2020-Sep-21 15:24 295 16 gusting 22 26.1
2020-Sep-21 15:18 296 13 gusting 19 26.1
2020-Sep-21 15:12 297 15 gusting 21 26.1
2020-Sep-21 15:06 298 15 gusting 21 26.1
2020-Sep-21 15:00 297 13 gusting 19 26.1
2020-Sep-21 14:54 303 14 gusting 20 26.1
2020-Sep-21 14:48 301 13 gusting 22 26.1
2020-Sep-21 14:42 303 15 gusting 21 26.1
2020-Sep-21 14:36 303 13 gusting 22 26.1
2020-Sep-21 14:30 304 15 gusting 20 26.1
2020-Sep-21 14:24 304 18 gusting 24 26.1
2020-Sep-21 14:18 299 14 gusting 22 26.1
2020-Sep-21 14:12 299 14 gusting 23 26.1
2020-Sep-21 14:06 298 17 gusting 23 26.1
2020-Sep-21 14:00 295 17 gusting 25 26.1
2020-Sep-21 13:54 301 13 gusting 22 26.1
2020-Sep-21 13:48 303 13 gusting 22 26.1
2020-Sep-21 13:42 300 13 gusting 19 26.1
2020-Sep-21 13:36 302 13 gusting 20 26.1
2020-Sep-21 13:30 304 13 gusting 19 26.1
2020-Sep-21 13:24 299 13 gusting 19 26.1
2020-Sep-21 13:18 298 14 gusting 22 26.1
2020-Sep-21 13:12 299 13 gusting 19 26.1
2020-Sep-21 13:06 303 12 gusting 18 26.1
2020-Sep-21 13:00 305 13 gusting 20 26.1
2020-Sep-21 12:54 303 12 gusting 19 26.1
2020-Sep-21 12:48 305 14 gusting 23 26.1
2020-Sep-21 12:42 300 13 gusting 19 26.1
2020-Sep-21 12:36 301 13 gusting 19 26.1
2020-Sep-21 12:30 306 13 gusting 19 26.1
2020-Sep-21 12:24 302 14 gusting 22 26.1
2020-Sep-21 12:18 302 13 gusting 22 26.1
2020-Sep-21 12:12 302 13 gusting 19 26.1
2020-Sep-21 12:06 305 13 gusting 23 26.1
2020-Sep-21 12:00 304 13 gusting 22 26.1
2020-Sep-21 11:54 308 13 gusting 18 26.1
2020-Sep-21 11:48 298 13 gusting 21 26.1
2020-Sep-21 11:42 303 12 gusting 20 26.1
2020-Sep-21 11:36 306 13 gusting 19 26.1
2020-Sep-21 11:30 306 13 gusting 20 26.1
2020-Sep-21 11:24 305 13 gusting 20 26.1
2020-Sep-21 11:18 303 14 gusting 22 26.1
2020-Sep-21 11:12 303 11 gusting 19 26.1
2020-Sep-21 11:06 302 13 gusting 23 26.1
2020-Sep-21 11:00 300 13 gusting 19 26.1
2020-Sep-21 10:54 298 13 gusting 23 26.1
2020-Sep-21 10:48 298 13 gusting 22 26.1
2020-Sep-21 10:42 305 12 gusting 19 26.1
2020-Sep-21 10:36 304 13 gusting 20 26.1
2020-Sep-21 10:30 299 15 gusting 24 26.1
2020-Sep-21 10:24 297 17 gusting 26 26.1
2020-Sep-21 10:18 303 12 gusting 20 26.1
2020-Sep-21 10:12 305 12 gusting 19 26.1
2020-Sep-21 10:06 303 13 gusting 19 26.1
2020-Sep-21 10:00 302 11 gusting 17 26.1
2020-Sep-21 09:54 307 12 gusting 21 26.1
2020-Sep-21 09:48 307 11 gusting 19 26.7
2020-Sep-21 09:42 301 13 gusting 20 26.7
2020-Sep-21 09:36 297 15 gusting 20 26.7
2020-Sep-21 09:30 299 14 gusting 23 26.7
2020-Sep-21 09:24 300 13 gusting 19 26.7
2020-Sep-21 09:18 300 13 gusting 19 26.7
2020-Sep-21 09:12 308 13 gusting 19 26.7
2020-Sep-21 09:06 298 14 gusting 21 26.7
2020-Sep-21 09:00 300 13 gusting 19 26.7
2020-Sep-21 08:54 305 11 gusting 19 26.7
2020-Sep-21 08:48 306 13 gusting 19 26.7
2020-Sep-21 08:42 305 11 gusting 18 26.7
2020-Sep-21 08:36 304 12 gusting 19 26.7
2020-Sep-21 08:30 311 13 gusting 19 26.7
2020-Sep-21 08:24 308 13 gusting 20 26.7
2020-Sep-21 08:18 308 13 gusting 21 26.7
2020-Sep-21 08:12 309 13 gusting 19 26.7
2020-Sep-21 08:06 312 11 gusting 19 26.7
2020-Sep-21 08:00 310 13 gusting 21 26.7
2020-Sep-21 07:54 316 13 gusting 24 26.1
2020-Sep-21 07:48 310 13 gusting 23 26.1
2020-Sep-21 07:42 310 13 gusting 22 26.1
2020-Sep-21 07:36 313 18 gusting 26 26.1
2020-Sep-21 07:30 310 16 gusting 25 26.1
2020-Sep-21 07:24 316 16 gusting 26 26.1
2020-Sep-21 07:18 316 17 gusting 25 26.1
2020-Sep-21 07:12 316 16 gusting 25 26.1
2020-Sep-21 07:06 314 16 gusting 25 26.1
2020-Sep-21 07:00 312 12 gusting 23 26.1
2020-Sep-21 06:54 311 14 gusting 25 26.1
2020-Sep-21 06:48 315 19 gusting 31 26.1
2020-Sep-21 06:42 318 19 gusting 27 26.1
2020-Sep-21 06:36 317 18 gusting 32 26.1
2020-Sep-21 06:30 316 18 gusting 27 26.1
2020-Sep-21 06:24 311 17 gusting 26 26.1
2020-Sep-21 06:18 311 19 gusting 29 26.1
2020-Sep-21 06:12 312 17 gusting 30 26.1
2020-Sep-21 06:06 309 19 gusting 26 26.1
2020-Sep-21 06:00 307 19 gusting 28 26.1
2020-Sep-21 05:54 313 20 gusting 29 26.1
2020-Sep-21 05:48 319 23 gusting 34 26.1
2020-Sep-21 05:42 310 21 gusting 31 26.7
2020-Sep-21 05:36 312 19 gusting 32 26.7
2020-Sep-21 05:30 312 22 gusting 32 26.7
2020-Sep-21 05:24 315 20 gusting 33 26.1
2020-Sep-21 05:18 316 19 gusting 32 26.1
2020-Sep-21 05:12 314 21 gusting 32 26.1
2020-Sep-21 05:06 313 24 gusting 33 26.1
2020-Sep-21 05:00 316 23 gusting 31 26.1
2020-Sep-21 04:54 319 22 gusting 38 26.1
2020-Sep-21 04:48 316 23 gusting 33 26.1
2020-Sep-21 04:42 313 22 gusting 33 26.1
2020-Sep-21 04:36 311 18 gusting 28 26.1
2020-Sep-21 04:30 307 22 gusting 30 26.1
2020-Sep-21 04:24 301 15 gusting 25 26.1
2020-Sep-21 04:18 300 17 gusting 27 26.1
2020-Sep-21 04:12 299 19 gusting 27 26.1
2020-Sep-21 04:06 301 17 gusting 26 26.1
2020-Sep-21 04:00 305 19 gusting 29 26.1
2020-Sep-21 03:54 309 21 gusting 29 26.1
2020-Sep-21 03:48 309 17 gusting 27 26.1
2020-Sep-21 03:42 305 18 gusting 27 26.1
2020-Sep-21 03:36 297 17 gusting 24 26.1
2020-Sep-21 03:30 308 18 gusting 26 26.1
2020-Sep-21 03:24 303 18 gusting 25 26.1
2020-Sep-21 03:18 297 18 gusting 25 26.1
2020-Sep-21 03:12 300 17 gusting 26 26.1
2020-Sep-21 03:06 301 17 gusting 33 26.1
2020-Sep-21 03:00 301 19 gusting 26 26.1
2020-Sep-21 02:54 299 16 gusting 30 26.1
2020-Sep-21 02:48 295 17 gusting 27 26.1
2020-Sep-21 02:42 303 17 gusting 26 26.1
2020-Sep-21 02:36 290 24 gusting 28 26.1
2020-Sep-21 02:30 293 19 gusting 28 26.1
2020-Sep-21 02:24 293 17 gusting 23 26.1
2020-Sep-21 02:18 298 20 gusting 29 26.1
2020-Sep-21 02:12 298 19 gusting 28 26.1
2020-Sep-21 02:06 299 19 gusting 26 26.1
2020-Sep-21 02:00 299 19 gusting 34 26.1
2020-Sep-21 01:54 294 22 gusting 33 26.1
2020-Sep-21 01:48 292 20 gusting 30 26.1
2020-Sep-21 01:42 289 22 gusting 33 26.1
2020-Sep-21 01:36 293 16 gusting 28 26.1
2020-Sep-21 01:30 290 21 gusting 26 26.1
2020-Sep-21 01:24 296 17 gusting 26 26.1
2020-Sep-21 01:18 294 19 gusting 27 26.1
2020-Sep-21 01:12 293 23 gusting 30 26.1
2020-Sep-21 01:06 292 21 gusting 31 26.1
2020-Sep-21 01:00 293 21 gusting 29 26.1
2020-Sep-21 00:54 293 19 gusting 29 26.1
2020-Sep-21 00:48 294 20 gusting 28 26.1
2020-Sep-21 00:42 296 21 gusting 29 26.1
2020-Sep-21 00:36 292 18 gusting 28 26.1
2020-Sep-21 00:30 291 17 gusting 27 26.1
2020-Sep-21 00:24 294 19 gusting 27 26.1
2020-Sep-21 00:18 297 22 gusting 27 26.7
2020-Sep-21 00:12 296 20 gusting 27 26.7
2020-Sep-21 00:06 296 20 gusting 28 26.7
2020-Sep-20 23:48 296 19 gusting 26 26.7
2020-Sep-20 23:42 294 16 gusting 28 26.7
2020-Sep-20 23:36 294 20 gusting 26 26.7
2020-Sep-20 23:30 297 18 gusting 26 26.7
2020-Sep-20 23:24 298 20 gusting 28 26.7
2020-Sep-20 23:18 294 20 gusting 27 26.7
2020-Sep-20 23:12 290 20 gusting 26 26.7
2020-Sep-20 23:06 293 19 gusting 26 26.7
2020-Sep-20 23:00 296 19 gusting 27 26.7
2020-Sep-20 22:54 298 21 gusting 30 26.7
2020-Sep-20 22:48 298 19 gusting 28 26.7
2020-Sep-20 22:42 296 20 gusting 26 26.7
2020-Sep-20 22:36 296 19 gusting 26 26.7
2020-Sep-20 22:30 292 19 gusting 30 26.7
2020-Sep-20 22:24 291 21 gusting 29 26.7
2020-Sep-20 22:18 289 19 gusting 26 26.7
2020-Sep-20 22:12 292 18 gusting 27 26.7
2020-Sep-20 22:06 291 19 gusting 28 26.7
2020-Sep-20 22:00 291 19 gusting 28 26.7
2020-Sep-20 21:54 287 17 gusting 24 26.7
2020-Sep-20 21:48 290 19 gusting 26 26.7
2020-Sep-20 21:42 288 19 gusting 26 26.7
2020-Sep-20 21:36 289 19 gusting 30 26.7
2020-Sep-20 21:30 289 20 gusting 26 26.7
2020-Sep-20 21:24 293 19 gusting 26 26.7
2020-Sep-20 21:18 289 20 gusting 27 26.7
2020-Sep-20 21:12 291 22 gusting 29 26.7
2020-Sep-20 21:06 291 16 gusting 26 26.7
2020-Sep-20 21:00 292 19 gusting 28 26.7
2020-Sep-20 20:54 292 18 gusting 27 26.7
2020-Sep-20 20:48 290 17 gusting 25 26.7
2020-Sep-20 20:42 292 18 gusting 24 26.7
2020-Sep-20 20:36 293 17 gusting 26 26.7
2020-Sep-20 20:30 289 19 gusting 25 26.7
2020-Sep-20 20:24 292 19 gusting 27 26.7
2020-Sep-20 20:18 292 20 gusting 27 26.7
2020-Sep-20 20:12 292 18 gusting 29 26.7
2020-Sep-20 20:06 296 20 gusting 27 26.7
2020-Sep-20 20:00 293 21 gusting 30 26.7
2020-Sep-20 19:54 292 19 gusting 29 26.7
2020-Sep-20 19:48 292 21 gusting 28 26.7
2020-Sep-20 19:42 291 20 gusting 31 26.7
2020-Sep-20 19:36 289 19 gusting 31 26.7
2020-Sep-20 19:30 289 21 gusting 29 26.7
2020-Sep-20 19:24 290 19 gusting 27 26.7
2020-Sep-20 19:18 289 19 gusting 29 26.7
2020-Sep-20 19:12 289 20 gusting 29 26.7
2020-Sep-20 19:06 292 21 gusting 26 26.7
2020-Sep-20 19:00 294 15 gusting 27 26.7
2020-Sep-20 18:54 297 17 gusting 29 26.7
2020-Sep-20 18:48 294 21 gusting 28 26.7
2020-Sep-20 18:42 289 25 gusting 30 26.7
2020-Sep-20 18:36 293 17 gusting 29 26.7
2020-Sep-20 18:30 293 22 gusting 27 26.7
2020-Sep-20 18:24 290 20 gusting 28 26.7
2020-Sep-20 18:18 295 18 gusting 26 26.7
2020-Sep-20 18:12 294 17 gusting 25 26.7
2020-Sep-20 18:06 292 21 gusting 29 26.7
2020-Sep-20 18:00 290 18 gusting 30 26.7
2020-Sep-20 17:54 294 16 gusting 31 26.7
2020-Sep-20 17:48 291 21 gusting 27 26.7
2020-Sep-20 17:42 297 19 gusting 29 26.7
2020-Sep-20 17:36 292 24 gusting 31 26.7
2020-Sep-20 17:30 293 20 gusting 31 26.7
2020-Sep-20 17:24 291 22 gusting 33 26.1
2020-Sep-20 17:18 294 19 gusting 31 26.1
2020-Sep-20 17:12 296 17 gusting 28 26.7
2020-Sep-20 17:06 295 15 gusting 23 26.7
2020-Sep-20 17:00 294 17 gusting 23 26.7
2020-Sep-20 16:54 293 18 gusting 26 26.7
2020-Sep-20 16:48 289 24 gusting 30 26.7
2020-Sep-20 16:42 294 19 gusting 26 26.7
2020-Sep-20 16:36 296 19 gusting 26 26.7
2020-Sep-20 16:30 294 18 gusting 26 26.7
2020-Sep-20 16:24 297 16 gusting 26 26.7
2020-Sep-20 16:18 297 17 gusting 24 26.7
2020-Sep-20 16:12 297 17 gusting 24 26.7
2020-Sep-20 16:06 299 16 gusting 22 26.7
2020-Sep-20 16:00 298 13 gusting 23 26.7
2020-Sep-20 15:54 298 13 gusting 19 26.7
2020-Sep-20 15:48 295 14 gusting 21 26.7
2020-Sep-20 15:42 298 12 gusting 19 26.7
2020-Sep-20 15:36 304 14 gusting 25 26.7
2020-Sep-20 15:30 301 13 gusting 23 26.7
2020-Sep-20 15:24 302 14 gusting 23 26.7
2020-Sep-20 15:18 296 12 gusting 25 26.7
2020-Sep-20 15:12 290 17 gusting 24 26.7
2020-Sep-20 15:06 294 15 gusting 25 26.7
2020-Sep-20 15:00 290 19 gusting 25 26.7
2020-Sep-20 14:54 291 16 gusting 20 26.7
2020-Sep-20 14:48 293 14 gusting 21 26.7
2020-Sep-20 14:42 298 13 gusting 20 26.7
2020-Sep-20 14:36 293 13 gusting 23 26.7
2020-Sep-20 14:30 294 14 gusting 22 26.7
2020-Sep-20 14:24 298 13 gusting 20 26.7
2020-Sep-20 14:18 296 14 gusting 23 26.7
2020-Sep-20 14:12 294 17 gusting 25 26.7
2020-Sep-20 14:06 295 18 gusting 25 26.7
2020-Sep-20 14:00 295 14 gusting 22 26.7